M I D A S
Marine Information and Data Acquisition System
Tripno 1046 of the Zeeleeuw from 2006-03-08 07:44:13 to 2006-03-08 13:42:24
Back to CruiseResearch ActivitiesStationsMapUnderway DataData graphs

EquipmentUnitsComments
TimeDGPSUTC
LatitudeDGPSDM.mWGS84
LongitudeDGPSDM.mWGS84
SpeedMeteo Stationm/sRelative wind speed
DirectionMeteo StationdegRelative wind direction
TemperatureMeteo Stationdeg CelciusAir temperature
PressureMeteo StationPaAtmospheric pressure
HumidityMeteo Station%Relative humidity
Missing or incorrect values are displayed as -999
Metereological data collected by the RV Zeeleeuw from 2006-03-08 07:41:22 to 2006-03-08 13:45:06
                                                                                    Next 1000 lines
Time Latitude Longitude Speed Direction Temperature Pressure Humidity
2006-03-08 07:41:33 51°13.597 2°56.094 -999 93 4.2 100310 100
2006-03-08 07:41:38 51°13.597 2°56.094 -999 109 4.2 100310 100
2006-03-08 07:41:43 51°13.597 2°56.094 -999 69 4.2 100310 100
2006-03-08 07:41:48 51°13.597 2°56.093 -999 -999 4.2 100310 100
2006-03-08 07:41:53 51°13.597 2°56.093 -999 70 4.2 100310 100
2006-03-08 07:41:58 51°13.597 2°56.093 -999 101 4.2 100310 100
2006-03-08 07:42:03 51°13.597 2°56.093 -999 36 4.2 100310 100
2006-03-08 07:42:08 51°13.597 2°56.093 -999 65 4.2 100310 100
2006-03-08 07:42:13 51°13.597 2°56.093 -999 82 4.2 100310 100
2006-03-08 07:42:18 51°13.597 2°56.092 -999 83 4.2 100310 100
2006-03-08 07:42:23 51°13.597 2°56.092 -999 85 4.2 100310 100
2006-03-08 07:42:28 51°13.597 2°56.092 -999 84 4.2 100310 100
2006-03-08 07:42:33 51°13.597 2°56.091 -999 73 4.2 100310 100
2006-03-08 07:42:38 51°13.596 2°56.091 -999 82 4.2 100310 100
2006-03-08 07:42:43 51°13.596 2°56.092 -999 56 4.2 100310 100
2006-03-08 07:42:48 51°13.596 2°56.093 -999 -999 4.2 100310 100
2006-03-08 07:42:53 51°13.595 2°56.094 -999 81 4.2 100310 100
2006-03-08 07:42:58 51°13.593 2°56.097 -999 107 4.2 100310 100
2006-03-08 07:43:03 51°13.591 2°56.1 -999 66 4.2 100310 100
2006-03-08 07:43:08 51°13.589 2°56.104 -999 38 4.2 100310 100
2006-03-08 07:43:13 51°13.587 2°56.108 -999 35 4.2 100310 100
2006-03-08 07:43:18 51°13.584 2°56.113 -999 45 4.2 100310 100
2006-03-08 07:43:23 51°13.581 2°56.118 -999 39 4.2 100310 100
2006-03-08 07:43:28 51°13.578 2°56.122 -999 54 4.2 100310 100
2006-03-08 07:43:33 51°13.575 2°56.127 -999 36 4.2 100310 100
2006-03-08 07:43:38 51°13.572 2°56.132 -999 61 4.2 100310 100
2006-03-08 07:43:42 51°13.569 2°56.137 -999 43 4.2 100320 100
2006-03-08 07:43:48 51°13.565 2°56.143 -999 39 4.2 100320 100
2006-03-08 07:43:53 51°13.561 2°56.148 -999 60 4.2 100310 100
2006-03-08 07:43:58 51°13.557 2°56.153 -999 60 4.2 100310 100
2006-03-08 07:44:03 51°13.553 2°56.159 -999 53 4.2 100320 100
2006-03-08 07:44:08 51°13.549 2°56.164 -999 55 4.2 100320 100
2006-03-08 07:44:13 51°13.545 2°56.169 -999 21 4.2 100310 100
2006-03-08 07:44:18 51°13.541 2°56.175 -999 28 4.2 100310 100
2006-03-08 07:44:23 51°13.536 2°56.183 -999 67 4.2 100310 100
2006-03-08 07:44:28 51°13.533 2°56.19 -999 74 4.2 100310 100
2006-03-08 07:44:33 51°13.53 2°56.198 -999 74 4.2 100310 100
2006-03-08 07:44:38 51°13.528 2°56.206 -999 70 4.2 100310 100
2006-03-08 07:44:43 51°13.526 2°56.214 -999 68 4.2 100320 100
2006-03-08 07:44:48 51°13.525 2°56.222 -999 -999 4.2 100320 100
2006-03-08 07:44:53 51°13.524 2°56.229 -999 81 4.2 100320 100
2006-03-08 07:44:58 51°13.524 2°56.237 -999 70 4.2 100320 100
2006-03-08 07:45:03 51°13.524 2°56.244 -999 100 4.2 100320 100
2006-03-08 07:45:08 51°13.525 2°56.25 -999 94 4.2 100320 100
2006-03-08 07:45:13 51°13.525 2°56.255 -999 131 4.2 100320 100
2006-03-08 07:45:18 51°13.526 2°56.257 -999 110 4.2 100320 100
2006-03-08 07:45:22 51°13.526 2°56.259 -999 137 4.2 100320 100
2006-03-08 07:45:28 51°13.526 2°56.259 -999 145 4.2 100320 100
2006-03-08 07:45:33 51°13.525 2°56.258 -999 129 4.2 100320 100
2006-03-08 07:45:38 51°13.524 2°56.256 -999 134 4.2 100320 100
2006-03-08 07:45:42 51°13.524 2°56.253 -999 143 4.3 100320 100
2006-03-08 07:45:48 51°13.523 2°56.25 -999 -999 4.3 100320 100
2006-03-08 07:45:53 51°13.522 2°56.248 -999 124 4.2 100320 100
2006-03-08 07:45:58 51°13.522 2°56.246 -999 160 4.2 100320 100
2006-03-08 07:46:03 51°13.521 2°56.244 -999 144 4.3 100320 100
2006-03-08 07:46:08 51°13.521 2°56.243 -999 112 4.3 100320 100
2006-03-08 07:46:13 51°13.521 2°56.243 -999 148 4.3 100320 100
2006-03-08 07:46:18 51°13.522 2°56.244 -999 144 4.3 100320 100
2006-03-08 07:46:23 51°13.522 2°56.245 -999 128 4.3 100320 100
2006-03-08 07:46:28 51°13.523 2°56.247 -999 156 4.3 100320 100
2006-03-08 07:46:32 51°13.524 2°56.249 -999 165 4.3 100320 100
2006-03-08 07:46:39 51°13.527 2°56.252 -999 186 4.3 100320 100
2006-03-08 07:46:43 51°13.529 2°56.254 -999 137 4.3 100320 100
2006-03-08 07:46:48 51°13.531 2°56.256 -999 -999 4.3 100320 100
2006-03-08 07:46:52 51°13.532 2°56.257 -999 180 4.2 100320 100
2006-03-08 07:46:58 51°13.533 2°56.258 -999 187 4.2 100320 100
2006-03-08 07:47:03 51°13.533 2°56.259 -999 195 4.3 100320 100
2006-03-08 07:47:08 51°13.533 2°56.259 -999 212 4.3 100320 100
2006-03-08 07:47:12 51°13.532 2°56.259 -999 178 4.3 100320 100
2006-03-08 07:47:18 51°13.531 2°56.258 -999 184 4.3 100320 100
2006-03-08 07:47:23 51°13.529 2°56.257 -999 186 4.3 100320 100
2006-03-08 07:47:28 51°13.527 2°56.256 -999 163 4.3 100320 100
2006-03-08 07:47:33 51°13.525 2°56.256 -999 194 4.3 100320 100
2006-03-08 07:47:38 51°13.523 2°56.255 -999 206 4.3 100320 100
2006-03-08 07:47:43 51°13.522 2°56.255 -999 176 4.4 100320 100
2006-03-08 07:47:48 51°13.521 2°56.255 -999 -999 4.4 100320 100
2006-03-08 07:47:53 51°13.521 2°56.255 -999 204 4.4 100320 100
2006-03-08 07:47:58 51°13.521 2°56.255 -999 197 4.4 100320 100
2006-03-08 07:48:03 51°13.521 2°56.255 -999 232 4.4 100320 100
2006-03-08 07:48:08 51°13.522 2°56.255 -999 239 4.4 100320 100
2006-03-08 07:48:13 51°13.523 2°56.254 -999 213 4.4 100320 100
2006-03-08 07:48:18 51°13.525 2°56.254 -999 229 4.4 100320 100
2006-03-08 07:48:23 51°13.527 2°56.254 -999 243 4.5 100320 100
2006-03-08 07:48:28 51°13.528 2°56.254 -999 246 4.5 100320 100
2006-03-08 07:48:33 51°13.53 2°56.254 -999 225 4.5 100320 100
2006-03-08 07:48:38 51°13.531 2°56.254 -999 232 4.5 100320 100
2006-03-08 07:48:43 51°13.531 2°56.255 -999 225 4.5 100320 100
2006-03-08 07:48:48 51°13.531 2°56.256 -999 -999 4.5 100320 100
2006-03-08 07:48:53 51°13.53 2°56.256 -999 228 4.5 100320 100
2006-03-08 07:48:58 51°13.529 2°56.258 -999 214 4.5 100320 100
2006-03-08 07:49:03 51°13.528 2°56.259 -999 237 4.5 100320 100
2006-03-08 07:49:08 51°13.527 2°56.26 -999 237 4.5 100320 100
2006-03-08 07:49:13 51°13.527 2°56.261 -999 222 4.5 100320 100
2006-03-08 07:49:18 51°13.526 2°56.262 -999 277 4.5 100320 100
2006-03-08 07:49:23 51°13.526 2°56.262 -999 262 4.5 100320 100
2006-03-08 07:49:28 51°13.527 2°56.262 -999 262 4.5 100320 100
2006-03-08 07:49:33 51°13.528 2°56.262 -999 268 4.4 100320 100
2006-03-08 07:49:38 51°13.529 2°56.26 -999 285 4.4 100320 100
2006-03-08 07:49:43 51°13.53 2°56.258 -999 258 4.4 100310 100
2006-03-08 07:49:48 51°13.532 2°56.255 -999 -999 4.4 100310 100
2006-03-08 07:49:53 51°13.534 2°56.251 -999 246 4.4 100320 100
2006-03-08 07:49:58 51°13.536 2°56.246 -999 279 4.4 100320 100
2006-03-08 07:50:03 51°13.537 2°56.24 -999 276 4.4 100310 100
2006-03-08 07:50:08 51°13.539 2°56.233 -999 258 4.4 100310 100
2006-03-08 07:50:13 51°13.541 2°56.224 -999 305 4.4 100310 100
2006-03-08 07:50:18 51°13.543 2°56.214 -999 316 4.4 100310 100
2006-03-08 07:50:23 51°13.545 2°56.203 -999 326 4.4 100310 100
2006-03-08 07:50:28 51°13.548 2°56.191 -999 317 4.4 100310 100
2006-03-08 07:50:33 51°13.551 2°56.179 -999 315 4.4 100310 100
2006-03-08 07:50:38 51°13.554 2°56.166 -999 328 4.4 100310 100
2006-03-08 07:50:43 51°13.557 2°56.153 -999 310 4.4 100310 100
2006-03-08 07:50:48 51°13.561 2°56.14 -999 -999 4.4 100310 100
2006-03-08 07:50:53 51°13.565 2°56.127 -999 244 4.4 100310 100
2006-03-08 07:50:58 51°13.569 2°56.114 -999 307 4.4 100310 100
2006-03-08 07:51:03 51°13.573 2°56.101 -999 318 4.4 100310 100
2006-03-08 07:51:08 51°13.577 2°56.088 -999 290 4.4 100310 100
2006-03-08 07:51:13 51°13.582 2°56.076 -999 296 4.5 100310 100
2006-03-08 07:51:18 51°13.587 2°56.064 -999 229 4.5 100310 100
2006-03-08 07:51:23 51°13.592 2°56.052 -999 229 4.4 100310 100
2006-03-08 07:51:28 51°13.597 2°56.039 -999 299 4.4 100310 100
2006-03-08 07:51:33 51°13.602 2°56.027 -999 294 4.4 100310 100
2006-03-08 07:51:38 51°13.607 2°56.016 -999 285 4.4 100310 100
2006-03-08 07:51:43 51°13.613 2°56.005 -999 41 4.4 100310 100
2006-03-08 07:51:48 51°13.618 2°55.993 -999 -999 4.4 100310 100
2006-03-08 07:51:53 51°13.623 2°55.981 -999 309 4.4 100310 100
2006-03-08 07:51:58 51°13.629 2°55.969 -999 289 4.4 100310 100
2006-03-08 07:52:03 51°13.634 2°55.957 -999 324 4.4 100310 100
2006-03-08 07:52:08 51°13.639 2°55.945 -999 307 4.4 100310 100
2006-03-08 07:52:13 51°13.644 2°55.932 -999 308 4.4 100310 100
2006-03-08 07:52:18 51°13.649 2°55.92 -999 313 4.4 100310 100
2006-03-08 07:52:23 51°13.654 2°55.908 -999 310 4.4 100310 100
2006-03-08 07:52:28 51°13.66 2°55.896 -999 336 4.4 100310 100
2006-03-08 07:52:33 51°13.665 2°55.884 -999 231 4.5 100310 100
2006-03-08 07:52:38 51°13.671 2°55.872 -999 304 4.5 100310 100
2006-03-08 07:52:43 51°13.676 2°55.86 -999 335 4.5 100310 100
2006-03-08 07:52:48 51°13.681 2°55.848 -999 -999 4.5 100310 100
2006-03-08 07:52:53 51°13.687 2°55.836 -999 301 4.4 100310 100
2006-03-08 07:52:58 51°13.693 2°55.825 -999 304 4.4 100310 100
2006-03-08 07:53:03 51°13.698 2°55.813 -999 317 4.4 100310 100
2006-03-08 07:53:08 51°13.704 2°55.802 -999 303 4.4 100310 100
2006-03-08 07:53:13 51°13.71 2°55.791 -999 270 4.4 100310 100
2006-03-08 07:53:18 51°13.716 2°55.78 -999 296 4.4 100310 100
2006-03-08 07:53:23 51°13.722 2°55.769 -999 284 4.4 100310 100
2006-03-08 07:53:28 51°13.728 2°55.758 -999 282 4.4 100310 100
2006-03-08 07:53:33 51°13.734 2°55.747 -999 275 4.4 100310 100
2006-03-08 07:53:38 51°13.74 2°55.736 -999 272 4.4 100310 100
2006-03-08 07:53:43 51°13.746 2°55.726 -999 277 4.5 100300 100
2006-03-08 07:53:48 51°13.753 2°55.716 -999 -999 4.5 100300 100
2006-03-08 07:53:53 51°13.76 2°55.707 -999 295 4.5 100300 100
2006-03-08 07:53:58 51°13.767 2°55.698 -999 288 4.5 100300 100
2006-03-08 07:54:03 51°13.774 2°55.689 -999 281 4.4 100310 100
2006-03-08 07:54:08 51°13.781 2°55.681 -999 291 4.4 100310 100
2006-03-08 07:54:12 51°13.787 2°55.674 -999 288 4.5 100310 100
2006-03-08 07:54:18 51°13.796 2°55.665 -999 303 4.5 100310 100
2006-03-08 07:54:23 51°13.804 2°55.658 -999 284 4.5 100310 100
2006-03-08 07:54:28 51°13.812 2°55.651 -999 257 4.5 100310 100
2006-03-08 07:54:33 51°13.82 2°55.645 -999 259 4.5 100310 100
2006-03-08 07:54:38 51°13.828 2°55.639 -999 268 4.5 100310 100
2006-03-08 07:54:43 51°13.836 2°55.632 -999 237 4.5 100310 100
2006-03-08 07:54:48 51°13.844 2°55.626 -999 225 4.5 100310 100
2006-03-08 07:54:53 51°13.852 2°55.62 -999 267 4.5 100300 100
2006-03-08 07:54:58 51°13.86 2°55.613 -999 271 4.5 100300 100
2006-03-08 07:55:03 51°13.868 2°55.605 -999 278 4.5 100300 100
2006-03-08 07:55:08 51°13.876 2°55.601 -999 325 4.5 100300 100
2006-03-08 07:55:13 51°13.885 2°55.595 -999 316 4.5 100310 100
2006-03-08 07:55:18 51°13.893 2°55.59 -999 41 4.5 100310 100
2006-03-08 07:55:23 51°13.902 2°55.584 -999 294 4.5 100300 100
2006-03-08 07:55:28 51°13.91 2°55.578 -999 43 4.5 100300 100
2006-03-08 07:55:33 51°13.918 2°55.573 -999 298 4.5 100300 100
2006-03-08 07:55:38 51°13.927 2°55.567 -999 298 4.5 100300 100
2006-03-08 07:55:43 51°13.936 2°55.56 -999 291 4.5 100300 100
2006-03-08 07:55:48 51°13.944 2°55.554 -999 -999 4.5 100300 100
2006-03-08 07:55:53 51°13.953 2°55.547 -999 337 4.5 100300 100
2006-03-08 07:55:58 51°13.962 2°55.541 -999 314 4.5 100300 100
2006-03-08 07:56:03 51°13.971 2°55.534 -999 325 4.5 100310 100
2006-03-08 07:56:08 51°13.98 2°55.528 -999 343 4.5 100310 100
2006-03-08 07:56:13 51°13.989 2°55.521 -999 286 4.5 100310 100
2006-03-08 07:56:18 51°13.999 2°55.515 -999 265 4.5 100310 100
2006-03-08 07:56:23 51°14.009 2°55.508 -999 261 4.5 100310 100
2006-03-08 07:56:28 51°14.019 2°55.501 -999 259 4.5 100310 100
2006-03-08 07:56:33 51°14.029 2°55.494 -999 254 4.5 100310 100
2006-03-08 07:56:38 51°14.039 2°55.487 -999 250 4.5 100310 100
2006-03-08 07:56:43 51°14.049 2°55.479 -999 280 4.5 100310 100
2006-03-08 07:56:48 51°14.059 2°55.472 -999 311 4.5 100310 100
2006-03-08 07:56:52 51°14.068 2°55.466 -999 314 4.5 100310 100
2006-03-08 07:56:58 51°14.08 2°55.456 -999 298 4.5 100310 100
2006-03-08 07:57:03 51°14.091 2°55.448 -999 338 4.5 100310 100
2006-03-08 07:57:08 51°14.101 2°55.44 -999 332 4.5 100310 100
2006-03-08 07:57:12 51°14.11 2°55.433 -999 342 4.5 100300 100
2006-03-08 07:57:18 51°14.123 2°55.423 -999 314 4.5 100300 100
2006-03-08 07:57:22 51°14.132 2°55.416 -999 335 4.5 100310 100
2006-03-08 07:57:28 51°14.145 2°55.404 -999 328 4.5 100310 100
2006-03-08 07:57:32 51°14.154 2°55.397 -999 285 4.6 100300 100
2006-03-08 07:57:38 51°14.167 2°55.385 -999 306 4.6 100300 100
2006-03-08 07:57:42 51°14.175 2°55.377 -999 39 4.6 100300 100
2006-03-08 07:57:48 51°14.188 2°55.363 -999 324 4.6 100300 100
2006-03-08 07:57:52 51°14.197 2°55.354 -999 311 4.5 100300 100
2006-03-08 07:57:58 51°14.209 2°55.339 -999 287 4.5 100300 100
2006-03-08 07:58:02 51°14.217 2°55.329 -999 342 4.5 100300 100
2006-03-08 07:58:08 51°14.229 2°55.313 -999 330 4.5 100300 100
2006-03-08 07:58:12 51°14.237 2°55.302 -999 333 4.6 100300 100
2006-03-08 07:58:18 51°14.248 2°55.284 -999 318 4.6 100300 100
2006-03-08 07:58:23 51°14.258 2°55.269 -999 341 4.5 100310 100
2006-03-08 07:58:28 51°14.268 2°55.252 -999 341 4.5 100310 100
2006-03-08 07:58:33 51°14.277 2°55.234 -999 340 4.5 100300 100
2006-03-08 07:58:38 51°14.287 2°55.216 -999 328 4.5 100300 100
2006-03-08 07:58:43 51°14.297 2°55.197 -999 314 4.6 100300 100
2006-03-08 07:58:48 51°14.307 2°55.178 -999 325 4.6 100300 100
2006-03-08 07:58:53 51°14.318 2°55.159 -999 42 4.6 100300 100
2006-03-08 07:58:58 51°14.328 2°55.139 -999 315 4.6 100300 100
2006-03-08 07:59:03 51°14.339 2°55.118 -999 323 4.6 100290 100
2006-03-08 07:59:08 51°14.348 2°55.096 -999 313 4.6 100290 100
2006-03-08 07:59:12 51°14.356 2°55.079 -999 319 4.6 100290 100
2006-03-08 07:59:18 51°14.369 2°55.053 -999 343 4.6 100290 100
2006-03-08 07:59:22 51°14.377 2°55.036 -999 43 4.6 100280 100
2006-03-08 07:59:28 51°14.39 2°55.01 -999 317 4.6 100280 100
2006-03-08 07:59:33 51°14.4 2°54.988 -999 320 4.6 100280 100
2006-03-08 07:59:38 51°14.411 2°54.966 -999 308 4.6 100280 100
2006-03-08 07:59:43 51°14.421 2°54.944 -999 308 4.6 100290 100
2006-03-08 07:59:48 51°14.431 2°54.922 -999 309 4.6 100290 100
2006-03-08 07:59:52 51°14.439 2°54.904 -999 309 4.6 100270 100
2006-03-08 07:59:58 51°14.451 2°54.877 -999 308 4.6 100270 100
2006-03-08 08:00:02 51°14.46 2°54.859 -999 301 4.6 100270 100
2006-03-08 08:00:08 51°14.473 2°54.834 -999 313 4.6 100270 100
2006-03-08 08:00:12 51°14.482 2°54.817 -999 306 4.6 100270 100
2006-03-08 08:00:18 51°14.495 2°54.792 -999 304 4.6 100270 100
2006-03-08 08:00:23 51°14.506 2°54.771 -999 298 4.6 100290 100
2006-03-08 08:00:28 51°14.516 2°54.75 -999 307 4.6 100290 100
2006-03-08 08:00:32 51°14.524 2°54.733 -999 302 4.6 100270 100
2006-03-08 08:00:38 51°14.536 2°54.707 -999 306 4.6 100270 100
2006-03-08 08:00:43 51°14.546 2°54.685 -999 309 4.6 100270 100
2006-03-08 08:00:48 51°14.557 2°54.663 -999 315 4.6 100270 100
2006-03-08 08:00:53 51°14.568 2°54.642 -999 312 4.6 100280 100
2006-03-08 08:00:58 51°14.579 2°54.621 -999 309 4.6 100280 100
2006-03-08 08:01:02 51°14.589 2°54.604 -999 314 4.6 100270 100
2006-03-08 08:01:08 51°14.603 2°54.58 -999 312 4.6 100270 100
2006-03-08 08:01:12 51°14.613 2°54.563 -999 312 4.6 100270 100
2006-03-08 08:01:18 51°14.628 2°54.539 -999 229 4.6 100270 100
2006-03-08 08:01:23 51°14.641 2°54.519 -999 309 4.6 100270 100
2006-03-08 08:01:28 51°14.654 2°54.5 -999 316 4.6 100270 100
2006-03-08 08:01:33 51°14.666 2°54.479 -999 230 4.6 100270 100
2006-03-08 08:01:38 51°14.678 2°54.458 -999 40 4.6 100270 100
2006-03-08 08:01:42 51°14.687 2°54.441 -999 310 4.5 100270 100
2006-03-08 08:01:48 51°14.699 2°54.414 -999 305 4.5 100270 100
2006-03-08 08:01:52 51°14.707 2°54.396 -999 308 4.5 100270 100
2006-03-08 08:01:58 51°14.72 2°54.369 -999 309 4.5 100270 100
2006-03-08 08:02:02 51°14.728 2°54.35 -999 306 4.5 100270 100
2006-03-08 08:02:08 51°14.739 2°54.323 -999 303 4.5 100270 100
2006-03-08 08:02:13 51°14.749 2°54.299 -999 308 4.5 100260 100
2006-03-08 08:02:18 51°14.758 2°54.275 -999 310 4.5 100260 100
2006-03-08 08:02:22 51°14.765 2°54.256 -999 313 4.5 100260 100
2006-03-08 08:02:28 51°14.776 2°54.228 -999 310 4.5 100260 100
2006-03-08 08:02:32 51°14.783 2°54.208 -999 310 4.5 100260 100
2006-03-08 08:02:38 51°14.794 2°54.18 -999 228 4.5 100260 100
2006-03-08 08:02:43 51°14.804 2°54.156 -999 229 4.5 100260 100
2006-03-08 08:02:48 51°14.813 2°54.132 -999 310 4.5 100260 100
2006-03-08 08:02:53 51°14.823 2°54.109 -999 314 4.5 100260 100
2006-03-08 08:02:58 51°14.832 2°54.085 -999 315 4.5 100260 100
2006-03-08 08:03:03 51°14.842 2°54.062 -999 228 4.5 100260 100
2006-03-08 08:03:08 51°14.851 2°54.038 -999 43 4.5 100260 100
2006-03-08 08:03:12 51°14.858 2°54.018 -999 314 4.5 100260 100
2006-03-08 08:03:18 51°14.869 2°53.989 -999 227 4.5 100260 100
2006-03-08 08:03:23 51°14.877 2°53.964 -999 43 4.5 100260 100
2006-03-08 08:03:28 51°14.886 2°53.94 -999 310 4.5 100260 100
2006-03-08 08:03:33 51°14.894 2°53.915 -999 314 4.5 100260 100
2006-03-08 08:03:38 51°14.902 2°53.89 -999 229 4.5 100260 100
2006-03-08 08:03:42 51°14.908 2°53.87 -999 40 4.5 100260 100
2006-03-08 08:03:48 51°14.918 2°53.84 -999 229 4.5 100260 100
2006-03-08 08:03:52 51°14.925 2°53.82 -999 314 4.5 100260 100
2006-03-08 08:03:58 51°14.935 2°53.79 -999 228 4.5 100260 100
2006-03-08 08:04:03 51°14.944 2°53.765 -999 227 4.5 100260 100
2006-03-08 08:04:08 51°14.952 2°53.741 -999 309 4.5 100260 100
2006-03-08 08:04:12 51°14.96 2°53.721 -999 313 4.5 100260 100
2006-03-08 08:04:18 51°14.971 2°53.692 -999 310 4.5 100260 100
2006-03-08 08:04:22 51°14.978 2°53.672 -999 311 4.5 100260 100
2006-03-08 08:04:28 51°14.989 2°53.643 -999 311 4.5 100260 100
2006-03-08 08:04:33 51°14.998 2°53.618 -999 307 4.5 100250 100
2006-03-08 08:04:38 51°15.007 2°53.594 -999 308 4.5 100250 100
2006-03-08 08:04:43 51°15.016 2°53.569 -999 313 4.5 100260 100
2006-03-08 08:04:48 51°15.025 2°53.544 -999 312 4.5 100260 100
2006-03-08 08:04:52 51°15.032 2°53.524 -999 309 4.5 100250 100
2006-03-08 08:04:58 51°15.043 2°53.495 -999 312 4.5 100250 100
2006-03-08 08:05:03 51°15.052 2°53.47 -999 313 4.5 100260 100
2006-03-08 08:05:08 51°15.061 2°53.445 -999 44 4.5 100260 100
2006-03-08 08:05:13 51°15.071 2°53.42 -999 313 4.5 100260 100
2006-03-08 08:05:18 51°15.08 2°53.396 -999 310 4.5 100260 100
2006-03-08 08:05:23 51°15.089 2°53.371 -999 313 4.5 100270 100
2006-03-08 08:05:28 51°15.098 2°53.347 -999 315 4.5 100270 100
2006-03-08 08:05:32 51°15.106 2°53.328 -999 306 4.4 100270 100
2006-03-08 08:05:38 51°15.117 2°53.298 -999 311 4.4 100270 100
2006-03-08 08:05:43 51°15.127 2°53.274 -999 315 4.4 100280 100
2006-03-08 08:05:48 51°15.136 2°53.249 -999 309 4.4 100280 100
2006-03-08 08:05:53 51°15.145 2°53.225 -999 312 4.4 100270 100
2006-03-08 08:05:58 51°15.154 2°53.201 -999 312 4.4 100270 100
2006-03-08 08:06:03 51°15.163 2°53.176 -999 315 4.4 100260 100
2006-03-08 08:06:08 51°15.173 2°53.151 -999 308 4.4 100260 100
2006-03-08 08:06:12 51°15.18 2°53.132 -999 309 4.4 100260 100
2006-03-08 08:06:18 51°15.192 2°53.102 -999 312 4.4 100260 100
2006-03-08 08:06:22 51°15.199 2°53.083 -999 311 4.4 100260 100
2006-03-08 08:06:28 51°15.21 2°53.054 -999 306 4.4 100260 100
2006-03-08 08:06:33 51°15.219 2°53.03 -999 314 4.4 100260 100
2006-03-08 08:06:38 51°15.229 2°53.006 -999 311 4.4 100260 100
2006-03-08 08:06:43 51°15.238 2°52.982 -999 308 4.4 100260 100
2006-03-08 08:06:48 51°15.248 2°52.958 -999 303 4.4 100260 100
2006-03-08 08:06:52 51°15.256 2°52.939 -999 311 4.4 100260 100
2006-03-08 08:06:58 51°15.267 2°52.91 -999 311 4.4 100260 100
2006-03-08 08:07:02 51°15.275 2°52.891 -999 310 4.4 100260 100
2006-03-08 08:07:08 51°15.286 2°52.862 -999 308 4.4 100260 100
2006-03-08 08:07:12 51°15.293 2°52.843 -999 310 4.4 100260 100
2006-03-08 08:07:18 51°15.304 2°52.813 -999 311 4.4 100260 100
2006-03-08 08:07:23 51°15.312 2°52.789 -999 310 4.4 100260 100
2006-03-08 08:07:28 51°15.321 2°52.764 -999 310 4.4 100260 100
2006-03-08 08:07:32 51°15.327 2°52.744 -999 312 4.4 100260 100
2006-03-08 08:07:38 51°15.337 2°52.714 -999 311 4.4 100260 100
2006-03-08 08:07:43 51°15.345 2°52.688 -999 310 4.4 100260 100
2006-03-08 08:07:48 51°15.353 2°52.664 -999 313 4.4 100260 100
2006-03-08 08:07:52 51°15.359 2°52.643 -999 312 4.4 100260 100
2006-03-08 08:07:58 51°15.368 2°52.612 -999 313 4.4 100260 100
2006-03-08 08:08:02 51°15.373 2°52.591 -999 228 4.4 100260 100
2006-03-08 08:08:08 51°15.381 2°52.56 -999 314 4.4 100260 100
2006-03-08 08:08:12 51°15.386 2°52.539 -999 226 4.3 100260 100
2006-03-08 08:08:18 51°15.393 2°52.508 -999 315 4.3 100260 100
2006-03-08 08:08:22 51°15.398 2°52.487 -999 42 4.3 100260 100
2006-03-08 08:08:28 51°15.405 2°52.455 -999 316 4.3 100260 100
2006-03-08 08:08:32 51°15.41 2°52.434 -999 42 4.3 100260 100
2006-03-08 08:08:38 51°15.416 2°52.402 -999 318 4.3 100260 100
2006-03-08 08:08:42 51°15.419 2°52.381 -999 318 4.3 100260 100
2006-03-08 08:08:48 51°15.425 2°52.349 -999 317 4.3 100260 100
2006-03-08 08:08:52 51°15.427 2°52.327 -999 317 4.3 100250 100
2006-03-08 08:08:58 51°15.431 2°52.295 -999 320 4.3 100250 100
2006-03-08 08:09:02 51°15.433 2°52.273 -999 321 4.3 100260 100
2006-03-08 08:09:08 51°15.435 2°52.24 -999 322 4.3 100260 100
2006-03-08 08:09:12 51°15.436 2°52.219 -999 324 4.3 100250 100
2006-03-08 08:09:18 51°15.438 2°52.186 -999 322 4.3 100250 100
2006-03-08 08:09:23 51°15.438 2°52.159 -999 323 4.3 100250 100
2006-03-08 08:09:28 51°15.439 2°52.131 -999 322 4.3 100250 100
2006-03-08 08:09:33 51°15.44 2°52.104 -999 321 4.3 100250 100
2006-03-08 08:09:38 51°15.441 2°52.077 -999 324 4.3 100250 100
2006-03-08 08:09:43 51°15.441 2°52.05 -999 325 4.3 100250 100
2006-03-08 08:09:48 51°15.441 2°52.023 -999 324 4.3 100250 100
2006-03-08 08:09:52 51°15.441 2°52.001 -999 322 4.4 100250 100
2006-03-08 08:09:58 51°15.441 2°51.968 -999 329 4.4 100250 100
2006-03-08 08:10:03 51°15.441 2°51.941 -999 325 4.3 100240 100
2006-03-08 08:10:08 51°15.44 2°51.914 -999 326 4.3 100240 100
2006-03-08 08:10:13 51°15.438 2°51.887 -999 325 4.4 100240 100
2006-03-08 08:10:18 51°15.437 2°51.86 -999 327 4.4 100240 100
2006-03-08 08:10:22 51°15.436 2°51.839 -999 328 4.3 100250 100
2006-03-08 08:10:28 51°15.433 2°51.806 -999 326 4.3 100250 100
2006-03-08 08:10:33 51°15.431 2°51.779 -999 331 4.3 100250 100
2006-03-08 08:10:38 51°15.429 2°51.752 -999 326 4.3 100250 100
2006-03-08 08:10:43 51°15.428 2°51.725 -999 332 4.3 100250 100
2006-03-08 08:10:48 51°15.425 2°51.698 -999 326 4.3 100250 100
2006-03-08 08:10:52 51°15.424 2°51.676 -999 327 4.3 100240 100
2006-03-08 08:10:58 51°15.422 2°51.643 -999 326 4.3 100240 100
2006-03-08 08:11:02 51°15.421 2°51.622 -999 331 4.3 100250 100
2006-03-08 08:11:08 51°15.419 2°51.589 -999 327 4.3 100250 100
2006-03-08 08:11:12 51°15.418 2°51.567 -999 325 4.3 100240 100
2006-03-08 08:11:18 51°15.417 2°51.534 -999 327 4.3 100240 100
2006-03-08 08:11:23 51°15.417 2°51.507 -999 325 4.3 100240 100
2006-03-08 08:11:28 51°15.416 2°51.48 -999 326 4.3 100240 100
2006-03-08 08:11:33 51°15.415 2°51.452 -999 325 4.3 100240 100
2006-03-08 08:11:38 51°15.415 2°51.425 -999 325 4.3 100240 100
2006-03-08 08:11:43 51°15.414 2°51.398 -999 325 4.3 100240 100
2006-03-08 08:11:48 51°15.413 2°51.37 -999 324 4.3 100240 100
2006-03-08 08:11:52 51°15.412 2°51.348 -999 325 4.3 100240 100
2006-03-08 08:11:58 51°15.411 2°51.315 -999 325 4.3 100240 100
2006-03-08 08:12:03 51°15.41 2°51.288 -999 327 4.3 100240 100
2006-03-08 08:12:08 51°15.409 2°51.261 -999 327 4.3 100240 100
2006-03-08 08:12:13 51°15.408 2°51.234 -999 325 4.4 100240 100
2006-03-08 08:12:18 51°15.407 2°51.207 -999 324 4.4 100240 100
2006-03-08 08:12:23 51°15.407 2°51.179 -999 323 4.3 100230 100
2006-03-08 08:12:28 51°15.406 2°51.152 -999 325 4.3 100230 100
2006-03-08 08:12:33 51°15.406 2°51.124 -999 321 4.3 100240 100
2006-03-08 08:12:38 51°15.405 2°51.097 -999 325 4.3 100240 100
2006-03-08 08:12:43 51°15.404 2°51.069 -999 321 4.3 100240 100
2006-03-08 08:12:48 51°15.404 2°51.042 -999 -999 4.3 100240 100
2006-03-08 08:12:53 51°15.403 2°51.014 -999 324 4.3 100230 100
2006-03-08 08:12:58 51°15.402 2°50.987 -999 324 4.3 100230 100
2006-03-08 08:13:02 51°15.402 2°50.965 -999 325 4.3 100240 100
2006-03-08 08:13:08 51°15.401 2°50.932 -999 326 4.3 100240 100
2006-03-08 08:13:13 51°15.399 2°50.905 -999 327 4.3 100240 100
2006-03-08 08:13:18 51°15.398 2°50.878 -999 325 4.3 100240 100
2006-03-08 08:13:23 51°15.397 2°50.85 -999 325 4.3 100240 100
2006-03-08 08:13:28 51°15.396 2°50.823 -999 325 4.3 100240 100
2006-03-08 08:13:32 51°15.395 2°50.801 -999 324 4.3 100230 100
2006-03-08 08:13:38 51°15.393 2°50.768 -999 328 4.3 100230 100
2006-03-08 08:13:43 51°15.392 2°50.741 -999 321 4.3 100240 100
2006-03-08 08:13:48 51°15.392 2°50.713 -999 322 4.3 100240 100
2006-03-08 08:13:52 51°15.391 2°50.691 -999 327 4.3 100230 100
2006-03-08 08:13:58 51°15.39 2°50.658 -999 325 4.3 100230 100
2006-03-08 08:14:03 51°15.39 2°50.631 -999 325 4.3 100230 100
2006-03-08 08:14:08 51°15.389 2°50.604 -999 327 4.3 100230 100
2006-03-08 08:14:13 51°15.388 2°50.576 -999 326 4.3 100230 100
2006-03-08 08:14:18 51°15.387 2°50.549 -999 326 4.3 100230 100
2006-03-08 08:14:23 51°15.386 2°50.522 -999 326 4.3 100230 100
2006-03-08 08:14:28 51°15.386 2°50.494 -999 324 4.3 100230 100
2006-03-08 08:14:32 51°15.385 2°50.472 -999 324 4.3 100240 100
2006-03-08 08:14:38 51°15.384 2°50.439 -999 326 4.3 100240 100
2006-03-08 08:14:43 51°15.383 2°50.412 -999 326 4.3 100240 100
2006-03-08 08:14:48 51°15.382 2°50.385 -999 323 4.3 100240 100
2006-03-08 08:14:53 51°15.381 2°50.357 -999 327 4.3 100240 100
2006-03-08 08:14:58 51°15.38 2°50.329 -999 327 4.3 100240 100
2006-03-08 08:15:02 51°15.378 2°50.307 -999 326 4.3 100240 100
2006-03-08 08:15:08 51°15.377 2°50.274 -999 327 4.3 100240 100
2006-03-08 08:15:12 51°15.376 2°50.252 -999 325 4.3 100240 100
2006-03-08 08:15:18 51°15.375 2°50.219 -999 326 4.3 100240 100
2006-03-08 08:15:22 51°15.375 2°50.197 -999 325 4.3 100240 100
2006-03-08 08:15:28 51°15.375 2°50.164 -999 326 4.3 100240 100
2006-03-08 08:15:33 51°15.375 2°50.136 -999 329 4.3 100240 100
2006-03-08 08:15:38 51°15.374 2°50.109 -999 325 4.3 100240 100
2006-03-08 08:15:43 51°15.374 2°50.081 -999 328 4.3 100240 100
2006-03-08 08:15:48 51°15.373 2°50.053 -999 326 4.3 100240 100
2006-03-08 08:15:53 51°15.372 2°50.026 -999 326 4.3 100240 100
2006-03-08 08:15:58 51°15.372 2°49.998 -999 328 4.3 100240 100
2006-03-08 08:16:02 51°15.371 2°49.976 -999 327 4.3 100240 100
2006-03-08 08:16:08 51°15.37 2°49.943 -999 326 4.3 100240 100
2006-03-08 08:16:13 51°15.369 2°49.915 -999 325 4.3 100240 100
2006-03-08 08:16:18 51°15.368 2°49.888 -999 327 4.3 100240 100
2006-03-08 08:16:23 51°15.368 2°49.86 -999 327 4.3 100230 100
2006-03-08 08:16:28 51°15.367 2°49.832 -999 325 4.3 100230 100
2006-03-08 08:16:32 51°15.367 2°49.81 -999 327 4.3 100240 100
2006-03-08 08:16:38 51°15.367 2°49.777 -999 324 4.3 100240 100
2006-03-08 08:16:43 51°15.367 2°49.749 -999 325 4.3 100240 100
2006-03-08 08:16:48 51°15.367 2°49.722 -999 323 4.3 100240 100
2006-03-08 08:16:52 51°15.368 2°49.7 -999 325 4.3 100240 100
2006-03-08 08:16:58 51°15.369 2°49.667 -999 323 4.3 100240 100
2006-03-08 08:17:03 51°15.369 2°49.639 -999 323 4.3 100240 100
2006-03-08 08:17:08 51°15.37 2°49.611 -999 321 4.3 100240 100
2006-03-08 08:17:13 51°15.37 2°49.584 -999 323 4.3 100240 100
2006-03-08 08:17:18 51°15.371 2°49.556 -999 326 4.3 100240 100
2006-03-08 08:17:23 51°15.372 2°49.528 -999 322 4.3 100240 100
2006-03-08 08:17:28 51°15.372 2°49.5 -999 325 4.3 100240 100
2006-03-08 08:17:32 51°15.372 2°49.479 -999 325 4.3 100230 100
2006-03-08 08:17:38 51°15.373 2°49.446 -999 323 4.3 100230 100
2006-03-08 08:17:42 51°15.373 2°49.424 -999 328 4.3 100230 100
2006-03-08 08:17:48 51°15.374 2°49.39 -999 324 4.3 100230 100
2006-03-08 08:17:53 51°15.374 2°49.363 -999 327 4.3 100230 100
2006-03-08 08:17:58 51°15.375 2°49.335 -999 324 4.3 100230 100
2006-03-08 08:18:03 51°15.375 2°49.308 -999 325 4.3 100230 100
2006-03-08 08:18:08 51°15.375 2°49.28 -999 324 4.3 100230 100
2006-03-08 08:18:13 51°15.375 2°49.253 -999 325 4.3 100240 100
2006-03-08 08:18:18 51°15.375 2°49.225 -999 325 4.3 100240 100
2006-03-08 08:18:23 51°15.374 2°49.198 -999 326 4.3 100230 100
2006-03-08 08:18:28 51°15.373 2°49.17 -999 326 4.3 100230 100
2006-03-08 08:18:33 51°15.373 2°49.143 -999 326 4.3 100230 100
2006-03-08 08:18:38 51°15.372 2°49.115 -999 327 4.3 100230 100
2006-03-08 08:18:43 51°15.372 2°49.088 -999 327 4.3 100230 100
2006-03-08 08:18:48 51°15.371 2°49.06 -999 325 4.3 100230 100
2006-03-08 08:18:53 51°15.371 2°49.033 -999 325 4.3 100230 100
2006-03-08 08:18:58 51°15.37 2°49.005 -999 329 4.3 100230 100
2006-03-08 08:19:03 51°15.37 2°48.978 -999 328 4.3 100230 100
2006-03-08 08:19:08 51°15.37 2°48.951 -999 329 4.3 100230 100
2006-03-08 08:19:13 51°15.37 2°48.923 -999 324 4.3 100230 100
2006-03-08 08:19:18 51°15.369 2°48.896 -999 328 4.3 100230 100
2006-03-08 08:19:23 51°15.369 2°48.869 -999 325 4.3 100230 100
2006-03-08 08:19:28 51°15.368 2°48.841 -999 327 4.3 100230 100
2006-03-08 08:19:33 51°15.368 2°48.814 -999 325 4.4 100230 100
2006-03-08 08:19:38 51°15.367 2°48.787 -999 328 4.4 100230 100
2006-03-08 08:19:43 51°15.367 2°48.76 -999 325 4.4 100230 100
2006-03-08 08:19:48 51°15.366 2°48.732 -999 325 4.4 100230 100
2006-03-08 08:19:53 51°15.365 2°48.705 -999 326 4.4 100220 100
2006-03-08 08:19:58 51°15.365 2°48.678 -999 326 4.4 100220 100
2006-03-08 08:20:03 51°15.365 2°48.65 -999 325 4.4 100230 100
2006-03-08 08:20:08 51°15.364 2°48.623 -999 326 4.4 100230 100
2006-03-08 08:20:13 51°15.364 2°48.595 -999 325 4.4 100230 100
2006-03-08 08:20:18 51°15.364 2°48.568 -999 324 4.4 100230 100
2006-03-08 08:20:23 51°15.364 2°48.54 -999 326 4.4 100230 100
2006-03-08 08:20:28 51°15.364 2°48.513 -999 324 4.4 100230 100
2006-03-08 08:20:33 51°15.364 2°48.485 -999 324 4.4 100230 100
2006-03-08 08:20:38 51°15.364 2°48.457 -999 326 4.4 100230 100
2006-03-08 08:20:43 51°15.363 2°48.43 -999 326 4.5 100230 100
2006-03-08 08:20:48 51°15.363 2°48.402 -999 325 4.5 100230 100
2006-03-08 08:20:53 51°15.362 2°48.375 -999 325 4.5 100230 100
2006-03-08 08:20:58 51°15.362 2°48.347 -999 326 4.5 100230 100
2006-03-08 08:21:03 51°15.361 2°48.32 -999 328 4.5 100230 100
2006-03-08 08:21:08 51°15.36 2°48.292 -999 326 4.5 100230 100
2006-03-08 08:21:13 51°15.36 2°48.264 -999 325 4.5 100220 100
2006-03-08 08:21:18 51°15.36 2°48.237 -999 323 4.5 100220 100
2006-03-08 08:21:23 51°15.359 2°48.209 -999 323 4.5 100230 100
2006-03-08 08:21:28 51°15.359 2°48.182 -999 322 4.5 100230 100
2006-03-08 08:21:33 51°15.359 2°48.154 -999 326 4.5 100230 100
2006-03-08 08:21:38 51°15.359 2°48.126 -999 324 4.5 100230 100
2006-03-08 08:21:43 51°15.359 2°48.099 -999 326 4.5 100230 100
2006-03-08 08:21:48 51°15.359 2°48.071 -999 325 4.5 100230 100
2006-03-08 08:21:53 51°15.358 2°48.043 -999 324 4.5 100230 100
2006-03-08 08:21:58 51°15.358 2°48.015 -999 328 4.5 100230 100
2006-03-08 08:22:03 51°15.358 2°47.988 -999 328 4.5 100230 100
2006-03-08 08:22:08 51°15.357 2°47.96 -999 327 4.5 100230 100
2006-03-08 08:22:13 51°15.357 2°47.933 -999 324 4.5 100230 100
2006-03-08 08:22:18 51°15.356 2°47.905 -999 327 4.5 100230 100
2006-03-08 08:22:23 51°15.356 2°47.877 -999 328 4.5 100230 100
2006-03-08 08:22:28 51°15.355 2°47.849 -999 324 4.5 100230 100
2006-03-08 08:22:33 51°15.355 2°47.822 -999 325 4.5 100230 100
2006-03-08 08:22:38 51°15.354 2°47.794 -999 326 4.5 100230 100
2006-03-08 08:22:43 51°15.354 2°47.766 -999 327 4.5 100230 100
2006-03-08 08:22:48 51°15.353 2°47.738 -999 325 4.5 100230 100
2006-03-08 08:22:52 51°15.353 2°47.716 -999 324 4.5 100230 100
2006-03-08 08:22:58 51°15.352 2°47.683 -999 327 4.5 100230 100
2006-03-08 08:23:03 51°15.352 2°47.655 -999 327 4.5 100220 100
2006-03-08 08:23:08 51°15.353 2°47.627 -999 325 4.5 100220 100
2006-03-08 08:23:13 51°15.353 2°47.599 -999 324 4.5 100230 100
2006-03-08 08:23:18 51°15.353 2°47.571 -999 324 4.5 100230 100
2006-03-08 08:23:23 51°15.353 2°47.543 -999 325 4.5 100230 100
2006-03-08 08:23:28 51°15.353 2°47.516 -999 327 4.5 100230 100
2006-03-08 08:23:33 51°15.353 2°47.488 -999 324 4.5 100230 100
2006-03-08 08:23:38 51°15.353 2°47.46 -999 325 4.5 100230 100
2006-03-08 08:23:43 51°15.353 2°47.432 -999 326 4.5 100230 100
2006-03-08 08:23:48 51°15.352 2°47.404 -999 -999 4.5 100230 100
2006-03-08 08:23:53 51°15.352 2°47.376 -999 325 4.5 100230 100
2006-03-08 08:23:58 51°15.352 2°47.349 -999 322 4.5 100230 100
2006-03-08 08:24:03 51°15.352 2°47.321 -999 324 4.5 100230 100
2006-03-08 08:24:08 51°15.352 2°47.293 -999 324 4.5 100230 100
2006-03-08 08:24:13 51°15.352 2°47.265 -999 325 4.5 100220 100
2006-03-08 08:24:18 51°15.352 2°47.237 -999 326 4.5 100220 100
2006-03-08 08:24:23 51°15.352 2°47.209 -999 324 4.6 100220 100
2006-03-08 08:24:28 51°15.352 2°47.181 -999 328 4.6 100220 100
2006-03-08 08:24:33 51°15.352 2°47.154 -999 327 4.6 100220 100
2006-03-08 08:24:38 51°15.352 2°47.126 -999 328 4.6 100220 100
2006-03-08 08:24:42 51°15.351 2°47.104 -999 326 4.6 100220 100
2006-03-08 08:24:48 51°15.351 2°47.07 -999 325 4.6 100220 100
2006-03-08 08:24:53 51°15.351 2°47.043 -999 327 4.5 100230 100
2006-03-08 08:24:58 51°15.351 2°47.015 -999 328 4.5 100230 100
2006-03-08 08:25:02 51°15.351 2°46.992 -999 324 4.6 100230 100
2006-03-08 08:25:08 51°15.351 2°46.959 -999 326 4.6 100230 100
2006-03-08 08:25:13 51°15.351 2°46.932 -999 326 4.5 100230 100
2006-03-08 08:25:18 51°15.351 2°46.904 -999 324 4.5 100230 100
2006-03-08 08:25:23 51°15.351 2°46.876 -999 324 4.6 100220 100
2006-03-08 08:25:28 51°15.351 2°46.848 -999 327 4.6 100220 100
2006-03-08 08:25:32 51°15.351 2°46.826 -999 327 4.5 100230 100
2006-03-08 08:25:38 51°15.351 2°46.793 -999 327 4.5 100230 100
2006-03-08 08:25:43 51°15.35 2°46.766 -999 328 4.5 100230 100
2006-03-08 08:25:48 51°15.35 2°46.738 -999 327 4.5 100230 100
2006-03-08 08:25:53 51°15.35 2°46.71 -999 326 4.6 100230 100
2006-03-08 08:25:58 51°15.35 2°46.683 -999 328 4.6 100230 100
2006-03-08 08:26:03 51°15.349 2°46.655 -999 327 4.5 100230 100
2006-03-08 08:26:08 51°15.349 2°46.628 -999 326 4.5 100230 100
2006-03-08 08:26:13 51°15.349 2°46.6 -999 328 4.5 100230 100
2006-03-08 08:26:18 51°15.349 2°46.572 -999 327 4.5 100230 100
2006-03-08 08:26:23 51°15.349 2°46.545 -999 328 4.6 100230 100
2006-03-08 08:26:28 51°15.349 2°46.517 -999 325 4.6 100230 100
2006-03-08 08:26:33 51°15.349 2°46.49 -999 325 4.5 100230 100
2006-03-08 08:26:38 51°15.35 2°46.462 -999 326 4.5 100230 100
2006-03-08 08:26:43 51°15.35 2°46.435 -999 329 4.6 100230 100
2006-03-08 08:26:48 51°15.35 2°46.407 -999 326 4.6 100230 100
2006-03-08 08:26:53 51°15.351 2°46.38 -999 324 4.6 100230 100
2006-03-08 08:26:58 51°15.351 2°46.352 -999 326 4.6 100230 100
2006-03-08 08:27:03 51°15.351 2°46.325 -999 325 4.6 100230 100
2006-03-08 08:27:08 51°15.351 2°46.297 -999 326 4.6 100230 100
2006-03-08 08:27:13 51°15.351 2°46.269 -999 325 4.6 100230 100
2006-03-08 08:27:18 51°15.351 2°46.242 -999 325 4.6 100230 100
2006-03-08 08:27:23 51°15.351 2°46.215 -999 326 4.6 100230 100
2006-03-08 08:27:28 51°15.351 2°46.187 -999 324 4.6 100230 100
2006-03-08 08:27:33 51°15.351 2°46.16 -999 328 4.6 100230 100
2006-03-08 08:27:38 51°15.351 2°46.133 -999 326 4.6 100230 100
2006-03-08 08:27:43 51°15.351 2°46.105 -999 326 4.6 100230 100
2006-03-08 08:27:48 51°15.351 2°46.077 -999 326 4.6 100230 100
2006-03-08 08:27:53 51°15.352 2°46.05 -999 324 4.6 100220 100
2006-03-08 08:27:58 51°15.352 2°46.022 -999 325 4.6 100220 100
2006-03-08 08:28:03 51°15.352 2°45.995 -999 327 4.6 100220 100
2006-03-08 08:28:08 51°15.353 2°45.967 -999 324 4.6 100220 100
2006-03-08 08:28:13 51°15.353 2°45.939 -999 323 4.6 100230 100
2006-03-08 08:28:18 51°15.353 2°45.912 -999 324 4.6 100230 100
2006-03-08 08:28:23 51°15.353 2°45.884 -999 322 4.6 100220 100
2006-03-08 08:28:28 51°15.352 2°45.857 -999 323 4.6 100220 100
2006-03-08 08:28:33 51°15.352 2°45.829 -999 323 4.6 100220 100
2006-03-08 08:28:38 51°15.352 2°45.801 -999 323 4.6 100220 100
2006-03-08 08:28:43 51°15.352 2°45.774 -999 325 4.6 100220 100
2006-03-08 08:28:48 51°15.353 2°45.746 -999 322 4.6 100220 100
2006-03-08 08:28:53 51°15.353 2°45.718 -999 323 4.6 100220 100
2006-03-08 08:28:58 51°15.353 2°45.69 -999 326 4.6 100220 100
2006-03-08 08:29:03 51°15.354 2°45.662 -999 323 4.6 100220 100
2006-03-08 08:29:08 51°15.355 2°45.634 -999 322 4.6 100220 100
2006-03-08 08:29:13 51°15.356 2°45.607 -999 319 4.6 100220 100
2006-03-08 08:29:18 51°15.357 2°45.579 -999 322 4.6 100220 100
2006-03-08 08:29:23 51°15.359 2°45.551 -999 323 4.6 100220 100
2006-03-08 08:29:28 51°15.36 2°45.524 -999 321 4.6 100220 100
2006-03-08 08:29:33 51°15.362 2°45.496 -999 321 4.7 100220 100
2006-03-08 08:29:38 51°15.363 2°45.468 -999 323 4.7 100220 100
2006-03-08 08:29:43 51°15.365 2°45.44 -999 323 4.7 100220 100
2006-03-08 08:29:48 51°15.366 2°45.413 -999 324 4.7 100220 100
2006-03-08 08:29:53 51°15.367 2°45.385 -999 324 4.6 100220 100
2006-03-08 08:29:58 51°15.368 2°45.357 -999 324 4.6 100220 100
2006-03-08 08:30:03 51°15.369 2°45.33 -999 325 4.6 100210 100
2006-03-08 08:30:08 51°15.37 2°45.302 -999 321 4.6 100210 100
2006-03-08 08:30:13 51°15.372 2°45.274 -999 323 4.6 100220 100
2006-03-08 08:30:18 51°15.373 2°45.247 -999 323 4.6 100220 100
2006-03-08 08:30:23 51°15.374 2°45.219 -999 322 4.6 100220 100
2006-03-08 08:30:28 51°15.375 2°45.192 -999 322 4.6 100220 100
2006-03-08 08:30:33 51°15.377 2°45.164 -999 323 4.6 100220 100
2006-03-08 08:30:38 51°15.378 2°45.137 -999 323 4.6 100220 100
2006-03-08 08:30:43 51°15.38 2°45.109 -999 320 4.6 100220 100
2006-03-08 08:30:48 51°15.381 2°45.082 -999 322 4.6 100220 100
2006-03-08 08:30:53 51°15.383 2°45.055 -999 323 4.7 100220 100
2006-03-08 08:30:58 51°15.384 2°45.027 -999 321 4.7 100220 100
2006-03-08 08:31:03 51°15.386 2°45 -999 322 4.6 100220 100
2006-03-08 08:31:08 51°15.387 2°44.973 -999 323 4.6 100220 100
2006-03-08 08:31:13 51°15.389 2°44.946 -999 324 4.6 100220 100
2006-03-08 08:31:18 51°15.39 2°44.919 -999 320 4.6 100220 100
2006-03-08 08:31:23 51°15.392 2°44.891 -999 322 4.7 100220 100
2006-03-08 08:31:28 51°15.394 2°44.864 -999 323 4.7 100220 100
2006-03-08 08:31:33 51°15.395 2°44.837 -999 320 4.6 100220 100
2006-03-08 08:31:38 51°15.397 2°44.809 -999 324 4.6 100220 100
2006-03-08 08:31:43 51°15.399 2°44.782 -999 324 4.6 100220 100
2006-03-08 08:31:48 51°15.4 2°44.755 -999 324 4.6 100220 100
2006-03-08 08:31:53 51°15.402 2°44.728 -999 323 4.6 100220 100
2006-03-08 08:31:58 51°15.403 2°44.7 -999 322 4.6 100220 100
2006-03-08 08:32:03 51°15.405 2°44.673 -999 323 4.6 100220 100
2006-03-08 08:32:08 51°15.406 2°44.646 -999 325 4.6 100220 100
2006-03-08 08:32:13 51°15.408 2°44.619 -999 322 4.6 100220 100
2006-03-08 08:32:18 51°15.409 2°44.592 -999 326 4.6 100220 100
2006-03-08 08:32:23 51°15.41 2°44.565 -999 323 4.6 100220 100
2006-03-08 08:32:28 51°15.411 2°44.538 -999 322 4.6 100220 100
2006-03-08 08:32:33 51°15.411 2°44.51 -999 321 4.6 100220 100
2006-03-08 08:32:38 51°15.413 2°44.483 -999 322 4.6 100220 100
2006-03-08 08:32:43 51°15.414 2°44.456 -999 326 4.6 100210 100
2006-03-08 08:32:48 51°15.415 2°44.429 -999 321 4.6 100210 100
2006-03-08 08:32:53 51°15.416 2°44.402 -999 324 4.6 100220 100
2006-03-08 08:32:58 51°15.418 2°44.374 -999 319 4.6 100220 100
2006-03-08 08:33:03 51°15.419 2°44.347 -999 322 4.6 100210 100
2006-03-08 08:33:08 51°15.421 2°44.319 -999 323 4.6 100210 100
2006-03-08 08:33:13 51°15.422 2°44.292 -999 322 4.6 100210 100
2006-03-08 08:33:18 51°15.423 2°44.265 -999 321 4.6 100210 100
2006-03-08 08:33:23 51°15.424 2°44.237 -999 323 4.6 100220 100
2006-03-08 08:33:28 51°15.425 2°44.21 -999 321 4.6 100220 100
2006-03-08 08:33:33 51°15.426 2°44.182 -999 322 4.6 100210 100
2006-03-08 08:33:38 51°15.427 2°44.154 -999 322 4.6 100210 100
2006-03-08 08:33:43 51°15.428 2°44.127 -999 322 4.6 100210 100
2006-03-08 08:33:48 51°15.429 2°44.099 -999 320 4.6 100210 100
2006-03-08 08:33:53 51°15.431 2°44.072 -999 319 4.6 100210 100
2006-03-08 08:33:58 51°15.432 2°44.044 -999 325 4.6 100210 100
2006-03-08 08:34:03 51°15.434 2°44.016 -999 324 4.6 100210 100
2006-03-08 08:34:08 51°15.436 2°43.989 -999 325 4.6 100210 100
2006-03-08 08:34:13 51°15.437 2°43.962 -999 326 4.6 100210 100
2006-03-08 08:34:18 51°15.439 2°43.934 -999 324 4.6 100210 100
2006-03-08 08:34:23 51°15.44 2°43.907 -999 324 4.6 100210 100
2006-03-08 08:34:28 51°15.442 2°43.879 -999 321 4.6 100210 100
2006-03-08 08:34:33 51°15.443 2°43.852 -999 322 4.6 100210 100
2006-03-08 08:34:38 51°15.445 2°43.824 -999 323 4.6 100210 100
2006-03-08 08:34:43 51°15.446 2°43.797 -999 325 4.6 100210 100
2006-03-08 08:34:48 51°15.447 2°43.769 -999 -999 4.6 100210 100
2006-03-08 08:34:53 51°15.449 2°43.741 -999 324 4.6 100220 100
2006-03-08 08:34:58 51°15.45 2°43.714 -999 320 4.6 100220 100
2006-03-08 08:35:03 51°15.452 2°43.686 -999 321 4.6 100210 100
2006-03-08 08:35:08 51°15.453 2°43.659 -999 320 4.6 100210 100
2006-03-08 08:35:13 51°15.455 2°43.631 -999 318 4.6 100210 100
2006-03-08 08:35:18 51°15.456 2°43.604 -999 323 4.6 100210 100
2006-03-08 08:35:23 51°15.458 2°43.576 -999 324 4.6 100210 100
2006-03-08 08:35:28 51°15.46 2°43.548 -999 321 4.6 100210 100
2006-03-08 08:35:33 51°15.461 2°43.521 -999 320 4.6 100210 100
2006-03-08 08:35:38 51°15.463 2°43.493 -999 322 4.6 100210 100
2006-03-08 08:35:43 51°15.465 2°43.466 -999 320 4.6 100210 100
2006-03-08 08:35:48 51°15.466 2°43.438 -999 322 4.6 100210 100
2006-03-08 08:35:53 51°15.467 2°43.41 -999 320 4.6 100210 100
2006-03-08 08:35:58 51°15.468 2°43.382 -999 324 4.6 100210 100
2006-03-08 08:36:03 51°15.469 2°43.355 -999 322 4.6 100210 100
2006-03-08 08:36:08 51°15.47 2°43.327 -999 322 4.6 100210 100
2006-03-08 08:36:13 51°15.471 2°43.299 -999 323 4.7 100210 100
2006-03-08 08:36:18 51°15.471 2°43.272 -999 318 4.7 100210 100
2006-03-08 08:36:23 51°15.471 2°43.244 -999 325 4.7 100210 100
2006-03-08 08:36:28 51°15.471 2°43.216 -999 323 4.7 100210 100
2006-03-08 08:36:33 51°15.471 2°43.189 -999 322 4.7 100200 100
2006-03-08 08:36:38 51°15.471 2°43.161 -999 324 4.7 100200 100
2006-03-08 08:36:43 51°15.471 2°43.133 -999 321 4.7 100210 100
2006-03-08 08:36:48 51°15.471 2°43.106 -999 322 4.7 100210 100
2006-03-08 08:36:53 51°15.471 2°43.078 -999 325 4.7 100200 100
2006-03-08 08:36:58 51°15.471 2°43.051 -999 325 4.7 100200 100
2006-03-08 08:37:03 51°15.471 2°43.023 -999 322 4.7 100200 100
2006-03-08 08:37:08 51°15.471 2°42.996 -999 322 4.7 100200 100
2006-03-08 08:37:13 51°15.471 2°42.968 -999 325 4.7 100200 100
2006-03-08 08:37:18 51°15.471 2°42.941 -999 324 4.7 100200 100
2006-03-08 08:37:23 51°15.471 2°42.912 -999 325 4.7 100210 100
2006-03-08 08:37:28 51°15.471 2°42.885 -999 324 4.7 100210 100
2006-03-08 08:37:33 51°15.471 2°42.857 -999 325 4.7 100200 100
2006-03-08 08:37:38 51°15.471 2°42.829 -999 325 4.7 100200 100
2006-03-08 08:37:43 51°15.471 2°42.801 -999 324 4.7 100200 100
2006-03-08 08:37:48 51°15.471 2°42.774 -999 323 4.7 100200 100
2006-03-08 08:37:53 51°15.471 2°42.746 -999 324 4.7 100200 100
2006-03-08 08:37:58 51°15.471 2°42.719 -999 323 4.7 100200 100
2006-03-08 08:38:03 51°15.472 2°42.691 -999 324 4.7 100200 100
2006-03-08 08:38:08 51°15.472 2°42.663 -999 324 4.7 100200 100
2006-03-08 08:38:13 51°15.472 2°42.636 -999 326 4.7 100200 100
2006-03-08 08:38:18 51°15.472 2°42.608 -999 321 4.7 100200 100
2006-03-08 08:38:23 51°15.472 2°42.581 -999 326 4.7 100200 100
2006-03-08 08:38:28 51°15.472 2°42.553 -999 325 4.7 100200 100
2006-03-08 08:38:33 51°15.472 2°42.525 -999 322 4.7 100200 100
2006-03-08 08:38:38 51°15.473 2°42.498 -999 322 4.7 100200 100
2006-03-08 08:38:43 51°15.473 2°42.47 -999 323 4.7 100200 100
2006-03-08 08:38:48 51°15.473 2°42.442 -999 323 4.7 100200 100
2006-03-08 08:38:53 51°15.473 2°42.414 -999 322 4.7 100200 100
2006-03-08 08:38:58 51°15.473 2°42.386 -999 323 4.7 100200 100
2006-03-08 08:39:03 51°15.473 2°42.358 -999 325 4.7 100200 100
2006-03-08 08:39:08 51°15.473 2°42.331 -999 323 4.7 100200 100
2006-03-08 08:39:13 51°15.474 2°42.303 -999 321 4.7 100190 100
2006-03-08 08:39:18 51°15.475 2°42.275 -999 322 4.7 100190 100
2006-03-08 08:39:23 51°15.476 2°42.247 -999 318 4.7 100200 100
2006-03-08 08:39:28 51°15.477 2°42.219 -999 321 4.7 100200 100
2006-03-08 08:39:32 51°15.478 2°42.197 -999 320 4.7 100200 100
2006-03-08 08:39:38 51°15.481 2°42.164 -999 321 4.7 100200 100
2006-03-08 08:39:43 51°15.484 2°42.136 -999 318 4.7 100200 100
2006-03-08 08:39:48 51°15.487 2°42.108 -999 316 4.7 100200 100
2006-03-08 08:39:53 51°15.49 2°42.081 -999 316 4.7 100200 100
2006-03-08 08:39:58 51°15.493 2°42.054 -999 316 4.7 100200 100
2006-03-08 08:40:03 51°15.496 2°42.027 -999 315 4.7 100200 100
2006-03-08 08:40:08 51°15.5 2°42 -999 316 4.7 100200 100
2006-03-08 08:40:13 51°15.503 2°41.972 -999 321 4.7 100190 100
2006-03-08 08:40:18 51°15.506 2°41.944 -999 320 4.7 100190 100
2006-03-08 08:40:23 51°15.509 2°41.917 -999 320 4.7 100200 100
2006-03-08 08:40:28 51°15.511 2°41.889 -999 321 4.7 100200 100
2006-03-08 08:40:32 51°15.513 2°41.867 -999 319 4.8 100200 100
2006-03-08 08:40:38 51°15.516 2°41.834 -999 320 4.8 100200 100
2006-03-08 08:40:43 51°15.518 2°41.806 -999 319 4.7 100200 100
2006-03-08 08:40:48 51°15.52 2°41.778 -999 321 4.7 100200 100
2006-03-08 08:40:53 51°15.523 2°41.75 -999 322 4.8 100190 100
2006-03-08 08:40:58 51°15.524 2°41.722 -999 324 4.8 100190 100
2006-03-08 08:41:03 51°15.526 2°41.694 -999 324 4.7 100190 100
2006-03-08 08:41:08 51°15.528 2°41.666 -999 322 4.7 100190 100
2006-03-08 08:41:13 51°15.529 2°41.639 -999 322 4.7 100190 100
2006-03-08 08:41:18 51°15.53 2°41.611 -999 324 4.7 100190 100
2006-03-08 08:41:23 51°15.531 2°41.583 -999 320 4.7 100190 100
2006-03-08 08:41:28 51°15.532 2°41.556 -999 324 4.7 100190 100
2006-03-08 08:41:33 51°15.534 2°41.53 -999 321 4.7 100190 100
2006-03-08 08:41:38 51°15.535 2°41.504 -999 320 4.7 100190 100
2006-03-08 08:41:43 51°15.536 2°41.478 -999 317 4.7 100190 100
2006-03-08 08:41:48 51°15.538 2°41.453 -999 316 4.7 100190 100
2006-03-08 08:41:53 51°15.539 2°41.43 -999 316 4.7 100190 100
2006-03-08 08:41:58 51°15.541 2°41.408 -999 43 4.7 100190 100
2006-03-08 08:42:03 51°15.543 2°41.386 -999 314 4.7 100190 100
2006-03-08 08:42:08 51°15.544 2°41.366 -999 227 4.7 100190 100
2006-03-08 08:42:13 51°15.546 2°41.347 -999 44 4.7 100190 100
2006-03-08 08:42:18 51°15.547 2°41.328 -999 315 4.7 100190 100
2006-03-08 08:42:22 51°15.548 2°41.314 -999 229 4.7 100190 100
2006-03-08 08:42:28 51°15.55 2°41.293 -999 314 4.7 100190 100
2006-03-08 08:42:33 51°15.551 2°41.277 -999 228 4.7 100200 100
2006-03-08 08:42:38 51°15.552 2°41.262 -999 314 4.7 100200 100
2006-03-08 08:42:42 51°15.552 2°41.25 -999 311 4.7 100190 100
2006-03-08 08:42:48 51°15.552 2°41.233 -999 229 4.7 100190 100
2006-03-08 08:42:53 51°15.552 2°41.22 -999 227 4.7 100190 100
2006-03-08 08:42:58 51°15.551 2°41.208 -999 42 4.7 100190 100
2006-03-08 08:43:03 51°15.551 2°41.196 -999 314 4.7 100190 100
2006-03-08 08:43:08 51°15.55 2°41.184 -999 42 4.7 100190 100
2006-03-08 08:43:13 51°15.55 2°41.173 -999 313 4.7 100190 100
2006-03-08 08:43:18 51°15.55 2°41.163 -999 311 4.7 100190 100
2006-03-08 08:43:23 51°15.549 2°41.152 -999 312 4.8 100200 100
2006-03-08 08:43:28 51°15.55 2°41.142 -999 305 4.8 100200 100
2006-03-08 08:43:33 51°15.55 2°41.132 -999 305 4.7 100190 100
2006-03-08 08:43:38 51°15.55 2°41.123 -999 308 4.7 100190 100
2006-03-08 08:43:43 51°15.551 2°41.114 -999 304 4.8 100190 100
2006-03-08 08:43:48 51°15.551 2°41.105 -999 307 4.8 100190 100
2006-03-08 08:43:53 51°15.551 2°41.096 -999 308 4.8 100200 100
2006-03-08 08:43:58 51°15.552 2°41.087 -999 307 4.8 100200 100
2006-03-08 08:44:03 51°15.552 2°41.079 -999 306 4.8 100200 100
2006-03-08 08:44:08 51°15.552 2°41.07 -999 306 4.8 100200 100
2006-03-08 08:44:13 51°15.552 2°41.062 -999 309 4.8 100200 100
2006-03-08 08:44:18 51°15.552 2°41.054 -999 309 4.8 100200 100
2006-03-08 08:44:23 51°15.552 2°41.045 -999 304 4.7 100190 100
2006-03-08 08:44:28 51°15.553 2°41.036 -999 310 4.7 100190 100
2006-03-08 08:44:33 51°15.553 2°41.028 -999 307 4.7 100200 100
2006-03-08 08:44:38 51°15.553 2°41.019 -999 307 4.7 100200 100
2006-03-08 08:44:42 51°15.554 2°41.012 -999 309 4.8 100200 100
2006-03-08 08:44:48 51°15.554 2°41.001 -999 310 4.8 100200 100
2006-03-08 08:44:53 51°15.554 2°40.993 -999 313 4.8 100200 100
2006-03-08 08:44:58 51°15.554 2°40.984 -999 310 4.8 100200 100
2006-03-08 08:45:03 51°15.553 2°40.975 -999 314 4.7 100190 100
2006-03-08 08:45:08 51°15.553 2°40.967 -999 317 4.7 100190 100
2006-03-08 08:45:13 51°15.552 2°40.958 -999 229 4.8 100190 100
2006-03-08 08:45:18 51°15.551 2°40.95 -999 43 4.8 100190 100
2006-03-08 08:45:23 51°15.55 2°40.942 -999 316 4.8 100200 100
2006-03-08 08:45:28 51°15.549 2°40.934 -999 317 4.8 100200 100
2006-03-08 08:45:33 51°15.548 2°40.926 -999 323 4.8 100190 100
2006-03-08 08:45:38 51°15.546 2°40.919 -999 321 4.8 100190 100
2006-03-08 08:45:43 51°15.544 2°40.911 -999 322 4.8 100190 100
2006-03-08 08:45:48 51°15.542 2°40.904 -999 325 4.8 100190 100
2006-03-08 08:45:53 51°15.54 2°40.897 -999 328 4.7 100190 100
2006-03-08 08:45:58 51°15.538 2°40.89 -999 328 4.7 100190 100
2006-03-08 08:46:02 51°15.536 2°40.884 -999 332 4.8 100190 100
2006-03-08 08:46:08 51°15.532 2°40.876 -999 334 4.8 100190 100
2006-03-08 08:46:12 51°15.53 2°40.872 -999 337 4.8 100190 100
2006-03-08 08:46:18 51°15.527 2°40.865 -999 335 4.8 100190 100
2006-03-08 08:46:23 51°15.523 2°40.859 -999 339 4.7 100190 100
2006-03-08 08:46:28 51°15.52 2°40.853 -999 334 4.7 100190 100
2006-03-08 08:46:33 51°15.517 2°40.847 -999 343 4.7 100190 100
2006-03-08 08:46:38 51°15.513 2°40.842 -999 338 4.7 100190 100
2006-03-08 08:46:43 51°15.51 2°40.836 -999 343 4.7 100190 100
2006-03-08 08:46:48 51°15.507 2°40.831 -999 339 4.7 100190 100
2006-03-08 08:46:53 51°15.503 2°40.826 -999 341 4.7 100190 100
2006-03-08 08:46:58 51°15.499 2°40.82 -999 342 4.7 100190 100
2006-03-08 08:47:02 51°15.496 2°40.816 -999 343 4.8 100190 100
2006-03-08 08:47:08 51°15.492 2°40.81 -999 344 4.8 100190 100
2006-03-08 08:47:13 51°15.488 2°40.805 -999 344 4.8 100190 100
2006-03-08 08:47:18 51°15.484 2°40.801 -999 346 4.8 100190 100
2006-03-08 08:47:23 51°15.48 2°40.797 -999 349 4.8 100190 100
2006-03-08 08:47:28 51°15.477 2°40.793 -999 349 4.8 100190 100
2006-03-08 08:47:33 51°15.473 2°40.79 -999 350 4.8 100190 100
2006-03-08 08:47:38 51°15.47 2°40.786 -999 349 4.8 100190 100
2006-03-08 08:47:43 51°15.466 2°40.784 -999 349 4.8 100190 100
2006-03-08 08:47:48 51°15.463 2°40.781 -999 348 4.8 100190 100
2006-03-08 08:47:53 51°15.46 2°40.777 -999 344 4.8 100190 100
2006-03-08 08:47:58 51°15.457 2°40.774 -999 346 4.8 100190 100
2006-03-08 08:48:03 51°15.454 2°40.771 -999 338 4.8 100190 100
2006-03-08 08:48:08 51°15.452 2°40.768 -999 340 4.8 100190 100
2006-03-08 08:48:13 51°15.449 2°40.765 -999 338 4.8 100190 100
2006-03-08 08:48:18 51°15.447 2°40.762 -999 334 4.8 100190 100
2006-03-08 08:48:23 51°15.445 2°40.759 -999 334 4.8 100190 100
2006-03-08 08:48:28 51°15.444 2°40.757 -999 328 4.8 100190 100
2006-03-08 08:48:33 51°15.443 2°40.755 -999 324 4.8 100190 100
2006-03-08 08:48:38 51°15.443 2°40.754 -999 319 4.8 100190 100
2006-03-08 08:48:43 51°15.443 2°40.754 -999 312 4.8 100180 100
2006-03-08 08:48:48 51°15.444 2°40.754 -999 303 4.8 100180 100
2006-03-08 08:48:53 51°15.445 2°40.755 -999 305 4.8 100180 100
2006-03-08 08:48:58 51°15.446 2°40.757 -999 299 4.8 100180 100
2006-03-08 08:49:03 51°15.447 2°40.76 -999 295 4.8 100190 100
2006-03-08 08:49:08 51°15.449 2°40.762 -999 297 4.8 100190 100
2006-03-08 08:49:13 51°15.45 2°40.764 -999 291 4.8 100190 100
2006-03-08 08:49:18 51°15.451 2°40.767 -999 291 4.8 100190 100
2006-03-08 08:49:23 51°15.452 2°40.769 -999 288 4.8 100190 100
2006-03-08 08:49:28 51°15.453 2°40.772 -999 287 4.8 100190 100
2006-03-08 08:49:33 51°15.454 2°40.774 -999 290 4.8 100190 100
2006-03-08 08:49:38 51°15.456 2°40.776 -999 289 4.8 100190 100
2006-03-08 08:49:43 51°15.457 2°40.778 -999 285 4.8 100190 100
2006-03-08 08:49:48 51°15.458 2°40.78 -999 283 4.8 100190 100
2006-03-08 08:49:52 51°15.459 2°40.782 -999 287 4.8 100190 100
2006-03-08 08:49:58 51°15.46 2°40.785 -999 284 4.8 100190 100
2006-03-08 08:50:03 51°15.461 2°40.787 -999 284 4.8 100190 100
2006-03-08 08:50:08 51°15.462 2°40.789 -999 287 4.8 100190 100
2006-03-08 08:50:13 51°15.463 2°40.791 -999 283 4.8 100200 100
2006-03-08 08:50:18 51°15.465 2°40.794 -999 283 4.8 100200 100
2006-03-08 08:50:23 51°15.466 2°40.796 -999 285 4.8 100190 100
2006-03-08 08:50:28 51°15.467 2°40.798 -999 284 4.8 100190 100
2006-03-08 08:50:33 51°15.468 2°40.8 -999 281 4.8 100190 100
2006-03-08 08:50:38 51°15.47 2°40.802 -999 282 4.8 100190 100
2006-03-08 08:50:43 51°15.471 2°40.804 -999 282 4.8 100190 100
2006-03-08 08:50:48 51°15.472 2°40.806 -999 282 4.8 100190 100
2006-03-08 08:50:53 51°15.473 2°40.809 -999 282 4.8 100190 100
2006-03-08 08:50:58 51°15.475 2°40.811 -999 278 4.8 100190 100
2006-03-08 08:51:03 51°15.476 2°40.813 -999 284 4.8 100190 100
2006-03-08 08:51:08 51°15.477 2°40.815 -999 280 4.8 100190 100
2006-03-08 08:51:13 51°15.478 2°40.817 -999 280 4.8 100190 100
2006-03-08 08:51:18 51°15.48 2°40.819 -999 280 4.8 100190 100
2006-03-08 08:51:23 51°15.481 2°40.821 -999 280 4.8 100190 100
2006-03-08 08:51:28 51°15.482 2°40.823 -999 282 4.8 100190 100
2006-03-08 08:51:33 51°15.483 2°40.826 -999 275 4.8 100190 100
2006-03-08 08:51:38 51°15.485 2°40.828 -999 279 4.8 100190 100
2006-03-08 08:51:43 51°15.486 2°40.83 -999 280 4.8 100190 100
2006-03-08 08:51:48 51°15.487 2°40.832 -999 277 4.8 100190 100
2006-03-08 08:51:53 51°15.489 2°40.834 -999 279 4.8 100190 100
2006-03-08 08:51:58 51°15.49 2°40.836 -999 274 4.8 100190 100
2006-03-08 08:52:03 51°15.491 2°40.838 -999 277 4.8 100190 100
2006-03-08 08:52:08 51°15.492 2°40.84 -999 272 4.8 100190 100
2006-03-08 08:52:13 51°15.494 2°40.842 -999 279 4.8 100190 100
2006-03-08 08:52:18 51°15.495 2°40.844 -999 278 4.8 100190 100
2006-03-08 08:52:23 51°15.496 2°40.846 -999 276 4.8 100190 100
2006-03-08 08:52:28 51°15.497 2°40.848 -999 277 4.8 100190 100
2006-03-08 08:52:33 51°15.498 2°40.851 -999 270 4.8 100190 100
2006-03-08 08:52:38 51°15.5 2°40.853 -999 269 4.8 100190 100
2006-03-08 08:52:43 51°15.501 2°40.855 -999 269 4.8 100190 100
2006-03-08 08:52:48 51°15.502 2°40.857 -999 269 4.8 100190 100
2006-03-08 08:52:53 51°15.503 2°40.859 -999 268 4.8 100190 100
2006-03-08 08:52:58 51°15.504 2°40.861 -999 268 4.8 100190 100
2006-03-08 08:53:03 51°15.506 2°40.863 -999 268 4.8 100190 100
2006-03-08 08:53:08 51°15.507 2°40.865 -999 264 4.8 100190 100
2006-03-08 08:53:13 51°15.508 2°40.867 -999 270 4.8 100190 100
2006-03-08 08:53:18 51°15.509 2°40.869 -999 269 4.8 100190 100
2006-03-08 08:53:23 51°15.511 2°40.871 -999 266 4.8 100190 100
2006-03-08 08:53:28 51°15.512 2°40.873 -999 263 4.8 100190 100
2006-03-08 08:53:33 51°15.513 2°40.875 -999 264 4.8 100190 100
2006-03-08 08:53:38 51°15.514 2°40.877 -999 265 4.8 100190 100
2006-03-08 08:53:42 51°15.515 2°40.878 -999 258 4.8 100190 100
2006-03-08 08:53:48 51°15.516 2°40.881 -999 261 4.8 100190 100
2006-03-08 08:53:53 51°15.518 2°40.883 -999 261 4.8 100190 100
2006-03-08 08:53:58 51°15.519 2°40.884 -999 261 4.8 100190 100
2006-03-08 08:54:03 51°15.52 2°40.886 -999 261 4.8 100190 100
2006-03-08 08:54:08 51°15.521 2°40.888 -999 260 4.8 100190 100
2006-03-08 08:54:13 51°15.522 2°40.89 -999 255 4.8 100190 100
2006-03-08 08:54:18 51°15.524 2°40.892 -999 261 4.8 100190 100
2006-03-08 08:54:23 51°15.525 2°40.894 -999 260 4.8 100190 100
2006-03-08 08:54:28 51°15.526 2°40.895 -999 258 4.8 100190 100
2006-03-08 08:54:33 51°15.527 2°40.897 -999 257 4.8 100190 100
2006-03-08 08:54:38 51°15.528 2°40.899 -999 257 4.8 100190 100
2006-03-08 08:54:43 51°15.529 2°40.901 -999 256 4.8 100200 100
2006-03-08 08:54:48 51°15.531 2°40.902 -999 258 4.8 100200 100
2006-03-08 08:54:53 51°15.532 2°40.904 -999 253 4.8 100190 100
2006-03-08 08:54:58 51°15.533 2°40.905 -999 256 4.8 100190 100
2006-03-08 08:55:03 51°15.534 2°40.907 -999 253 4.8 100200 100
2006-03-08 08:55:08 51°15.535 2°40.909 -999 254 4.8 100200 100
2006-03-08 08:55:13 51°15.536 2°40.91 -999 251 4.8 100200 100
2006-03-08 08:55:18 51°15.537 2°40.912 -999 254 4.8 100200 100
2006-03-08 08:55:23 51°15.539 2°40.914 -999 252 4.8 100190 100
2006-03-08 08:55:28 51°15.54 2°40.915 -999 251 4.8 100190 100
2006-03-08 08:55:33 51°15.541 2°40.917 -999 249 4.8 100200 100
2006-03-08 08:55:38 51°15.542 2°40.918 -999 251 4.8 100200 100
2006-03-08 08:55:43 51°15.544 2°40.92 -999 251 4.8 100200 100
2006-03-08 08:55:48 51°15.545 2°40.921 -999 250 4.8 100200 100
2006-03-08 08:55:53 51°15.546 2°40.923 -999 254 4.8 100200 100
2006-03-08 08:55:58 51°15.547 2°40.924 -999 252 4.8 100200 100
2006-03-08 08:56:03 51°15.548 2°40.926 -999 254 4.8 100190 100
2006-03-08 08:56:08 51°15.549 2°40.927 -999 248 4.8 100190 100
2006-03-08 08:56:13 51°15.551 2°40.928 -999 247 4.8 100190 100
2006-03-08 08:56:18 51°15.552 2°40.93 -999 247 4.8 100190 100
2006-03-08 08:56:23 51°15.553 2°40.931 -999 245 4.8 100200 100
2006-03-08 08:56:28 51°15.554 2°40.932 -999 255 4.8 100200 100
2006-03-08 08:56:32 51°15.555 2°40.934 -999 250 4.8 100190 100
2006-03-08 08:56:38 51°15.557 2°40.935 -999 249 4.8 100190 100
2006-03-08 08:56:42 51°15.558 2°40.937 -999 248 4.8 100190 100
2006-03-08 08:56:48 51°15.559 2°40.938 -999 247 4.8 100190 100
2006-03-08 08:56:53 51°15.561 2°40.94 -999 244 4.8 100190 100
2006-03-08 08:56:58 51°15.562 2°40.941 -999 246 4.8 100190 100
2006-03-08 08:57:03 51°15.563 2°40.943 -999 248 4.8 100190 100
2006-03-08 08:57:08 51°15.564 2°40.944 -999 247 4.8 100190 100
2006-03-08 08:57:13 51°15.566 2°40.945 -999 245 4.8 100200 100
2006-03-08 08:57:18 51°15.567 2°40.946 -999 249 4.8 100200 100
2006-03-08 08:57:23 51°15.568 2°40.948 -999 249 4.8 100190 100
2006-03-08 08:57:28 51°15.569 2°40.949 -999 250 4.8 100190 100
2006-03-08 08:57:32 51°15.57 2°40.95 -999 244 4.8 100190 100
2006-03-08 08:57:38 51°15.572 2°40.952 -999 246 4.8 100190 100
2006-03-08 08:57:43 51°15.573 2°40.953 -999 246 4.8 100190 100
2006-03-08 08:57:48 51°15.574 2°40.954 -999 246 4.8 100190 100
2006-03-08 08:57:52 51°15.575 2°40.955 -999 244 4.8 100190 100
2006-03-08 08:57:58 51°15.577 2°40.957 -999 250 4.8 100190 100
2006-03-08 08:58:03 51°15.578 2°40.958 -999 247 4.8 100190 100
2006-03-08 08:58:08 51°15.579 2°40.959 -999 251 4.8 100190 100
2006-03-08 08:58:13 51°15.58 2°40.961 -999 248 4.8 100190 100
2006-03-08 08:58:18 51°15.582 2°40.962 -999 249 4.8 100190 100
2006-03-08 08:58:23 51°15.583 2°40.963 -999 248 4.8 100190 100
2006-03-08 08:58:28 51°15.584 2°40.965 -999 251 4.8 100190 100
2006-03-08 08:58:33 51°15.585 2°40.966 -999 253 4.8 100190 100
2006-03-08 08:58:38 51°15.587 2°40.966 -999 252 4.8 100190 100
2006-03-08 08:58:43 51°15.59 2°40.965 -999 255 4.8 100190 100
2006-03-08 08:58:48 51°15.593 2°40.962 -999 263 4.8 100190 100
2006-03-08 08:58:53 51°15.597 2°40.958 -999 270 4.8 100190 100
2006-03-08 08:58:58 51°15.6 2°40.953 -999 273 4.8 100190 100
2006-03-08 08:59:03 51°15.605 2°40.946 -999 279 4.8 100190 100
2006-03-08 08:59:08 51°15.609 2°40.938 -999 283 4.8 100190 100
2006-03-08 08:59:13 51°15.614 2°40.929 -999 285 4.8 100190 100
2006-03-08 08:59:18 51°15.619 2°40.92 -999 286 4.8 100190 100
2006-03-08 08:59:23 51°15.624 2°40.909 -999 294 4.8 100190 100
2006-03-08 08:59:28 51°15.629 2°40.898 -999 291 4.8 100190 100
2006-03-08 08:59:33 51°15.633 2°40.886 -999 295 4.8 100190 100
2006-03-08 08:59:38 51°15.638 2°40.872 -999 296 4.8 100190 100
2006-03-08 08:59:43 51°15.643 2°40.859 -999 300 4.8 100190 100
2006-03-08 08:59:48 51°15.648 2°40.845 -999 303 4.8 100190 100
2006-03-08 08:59:53 51°15.652 2°40.83 -999 307 4.8 100190 100
2006-03-08 08:59:58 51°15.656 2°40.815 -999 306 4.8 100190 100
2006-03-08 09:00:03 51°15.659 2°40.799 -999 309 4.8 100180 100
2006-03-08 09:00:08 51°15.662 2°40.783 -999 312 4.8 100180 100
2006-03-08 09:00:13 51°15.664 2°40.766 -999 228 4.8 100180 100
2006-03-08 09:00:18 51°15.666 2°40.75 -999 227 4.8 100180 100
2006-03-08 09:00:23 51°15.667 2°40.733 -999 318 4.8 100180 100
2006-03-08 09:00:28 51°15.667 2°40.716 -999 317 4.8 100180 100
2006-03-08 09:00:33 51°15.667 2°40.699 -999 321 4.8 100180 100
2006-03-08 09:00:38 51°15.666 2°40.683 -999 322 4.8 100180 100
2006-03-08 09:00:42 51°15.666 2°40.669 -999 326 4.8 100180 100
2006-03-08 09:00:48 51°15.664 2°40.648 -999 327 4.8 100180 100
2006-03-08 09:00:53 51°15.663 2°40.63 -999 329 4.8 100180 100
2006-03-08 09:00:58 51°15.661 2°40.61 -999 324 4.8 100180 100
2006-03-08 09:01:02 51°15.66 2°40.593 -999 328 4.8 100170 100
2006-03-08 09:01:08 51°15.657 2°40.566 -999 328 4.8 100170 100
2006-03-08 09:01:13 51°15.655 2°40.543 -999 328 4.8 100180 100
2006-03-08 09:01:18 51°15.653 2°40.518 -999 331 4.8 100180 100
2006-03-08 09:01:22 51°15.651 2°40.498 -999 336 4.8 100160 100
2006-03-08 09:01:28 51°15.648 2°40.467 -999 331 4.8 100160 100
2006-03-08 09:01:33 51°15.646 2°40.44 -999 333 4.8 100160 100
2006-03-08 09:01:38 51°15.644 2°40.413 -999 331 4.8 100160 100
2006-03-08 09:01:42 51°15.642 2°40.392 -999 333 4.8 100160 100
2006-03-08 09:01:48 51°15.64 2°40.359 -999 332 4.8 100160 100
2006-03-08 09:01:53 51°15.638 2°40.332 -999 334 4.8 100160 100
2006-03-08 09:01:58 51°15.636 2°40.304 -999 333 4.8 100160 100
2006-03-08 09:02:03 51°15.635 2°40.277 -999 332 4.9 100160 100
2006-03-08 09:02:08 51°15.633 2°40.25 -999 331 4.9 100160 100
2006-03-08 09:02:13 51°15.631 2°40.223 -999 332 4.9 100160 100
2006-03-08 09:02:18 51°15.629 2°40.195 -999 333 4.9 100160 100
2006-03-08 09:02:23 51°15.627 2°40.168 -999 332 4.9 100150 100
2006-03-08 09:02:28 51°15.624 2°40.141 -999 333 4.9 100150 100
2006-03-08 09:02:32 51°15.623 2°40.119 -999 334 4.9 100160 100
2006-03-08 09:02:38 51°15.62 2°40.086 -999 335 4.9 100160 100
2006-03-08 09:02:43 51°15.618 2°40.059 -999 335 4.9 100160 100
2006-03-08 09:02:48 51°15.616 2°40.031 -999 332 4.9 100160 100
2006-03-08 09:02:53 51°15.614 2°40.004 -999 331 4.9 100160 100
2006-03-08 09:02:58 51°15.612 2°39.977 -999 333 4.9 100160 100
2006-03-08 09:03:03 51°15.61 2°39.949 -999 331 4.9 100160 100
2006-03-08 09:03:08 51°15.609 2°39.921 -999 330 4.9 100160 100
2006-03-08 09:03:12 51°15.608 2°39.899 -999 332 4.9 100160 100
2006-03-08 09:03:18 51°15.606 2°39.866 -999 332 4.9 100160 100
2006-03-08 09:03:23 51°15.604 2°39.839 -999 333 4.9 100160 100
2006-03-08 09:03:28 51°15.603 2°39.811 -999 332 4.9 100160 100
2006-03-08 09:03:33 51°15.601 2°39.783 -999 333 4.9 100160 100
2006-03-08 09:03:38 51°15.599 2°39.756 -999 335 4.9 100160 100
2006-03-08 09:03:43 51°15.596 2°39.728 -999 334 4.9 100160 100
2006-03-08 09:03:48 51°15.594 2°39.701 -999 333 4.9 100160 100
2006-03-08 09:03:53 51°15.591 2°39.674 -999 333 4.9 100160 100
2006-03-08 09:03:58 51°15.588 2°39.646 -999 336 4.9 100160 100
2006-03-08 09:04:03 51°15.585 2°39.619 -999 335 4.9 100160 100
2006-03-08 09:04:08 51°15.582 2°39.592 -999 337 4.9 100160 100
2006-03-08 09:04:13 51°15.578 2°39.564 -999 334 4.9 100160 100
2006-03-08 09:04:18 51°15.575 2°39.537 -999 335 4.9 100160 100
2006-03-08 09:04:23 51°15.573 2°39.51 -999 338 4.9 100160 100
2006-03-08 09:04:28 51°15.57 2°39.482 -999 337 4.9 100160 100
2006-03-08 09:04:32 51°15.567 2°39.46 -999 335 4.9 100160 100
2006-03-08 09:04:38 51°15.564 2°39.427 -999 337 4.9 100160 100
2006-03-08 09:04:43 51°15.562 2°39.4 -999 336 4.9 100160 100